Time,TemperatureF,DewpointF,PressureIn,WindDirection,WindDirectionDegrees,WindSpeedMPH,WindSpeedGustMPH,Humidity,HourlyPrecipIn,Conditions,Clouds,dailyrainin,SoftwareType,DateUTC
2013-06-13 00:00:00,84.9,66.4,29.95,South,177,0.0,6.3,54,0.00,,---,0.00,VWS V14.00,2013-06-13 05:00:00,
2013-06-13 00:10:00,84.6,66.6,29.95,South,173,3.1,4.9,55,0.00,,---,0.00,VWS V14.00,2013-06-13 05:10:00,
2013-06-13 00:20:00,84.2,66.8,29.95,SSW,208,2.7,4.9,56,0.00,,---,0.00,VWS V14.00,2013-06-13 05:20:00,
2013-06-13 00:30:00,83.8,67.0,29.95,SSW,206,3.1,4.9,57,0.00,,---,0.00,VWS V14.00,2013-06-13 05:30:00,
2013-06-13 00:40:00,83.3,67.0,29.95,South,170,3.1,4.5,58,0.00,,---,0.00,VWS V14.00,2013-06-13 05:40:00,
2013-06-13 00:50:00,82.8,67.0,29.95,SSW,193,0.0,4.0,59,0.00,,---,0.00,VWS V14.00,2013-06-13 05:50:00,
2013-06-13 01:00:00,82.4,66.7,29.95,East,87,0.0,6.7,59,0.00,,---,0.00,VWS V14.00,2013-06-13 06:00:00,
2013-06-13 01:10:00,81.9,66.6,29.95,South,169,0.0,4.0,60,0.00,,---,0.00,VWS V14.00,2013-06-13 06:10:00,
2013-06-13 01:20:00,81.7,66.5,29.95,WSW,240,0.0,4.5,60,0.00,,---,0.00,VWS V14.00,2013-06-13 06:20:00,
2013-06-13 01:30:00,81.5,65.8,29.95,ESE,122,0.0,3.1,59,0.00,,---,0.00,VWS V14.00,2013-06-13 06:30:00,
2013-06-13 01:40:00,81.5,65.8,29.95,South,169,0.0,4.5,59,0.00,,---,0.00,VWS V14.00,2013-06-13 06:40:00,
2013-06-13 01:50:00,81.3,65.6,29.98,South,173,0.0,3.1,59,0.00,,---,0.00,VWS V14.00,2013-06-13 06:50:00,
2013-06-13 02:00:00,81.1,65.5,29.98,South,173,0.0,3.1,59,0.00,,---,0.00,VWS V14.00,2013-06-13 07:00:00,
2013-06-13 02:10:00,80.8,65.1,29.98,South,173,0.0,0.0,59,0.00,,---,0.00,VWS V14.00,2013-06-13 07:10:00,
2013-06-13 02:20:00,80.6,65.0,29.98,SE,140,0.0,3.6,59,0.00,,---,0.00,VWS V14.00,2013-06-13 07:20:00,
2013-06-13 02:30:00,80.2,65.1,29.98,SE,139,0.0,3.6,60,0.00,,---,0.00,VWS V14.00,2013-06-13 07:30:00,
2013-06-13 02:40:00,80.1,64.9,29.98,SW,218,2.7,4.5,60,0.00,,---,0.00,VWS V14.00,2013-06-13 07:40:00,
2013-06-13 02:50:00,79.9,65.2,29.98,SSE,158,0.0,3.1,61,0.00,,---,0.00,VWS V14.00,2013-06-13 07:50:00,
2013-06-13 03:00:00,79.7,65.5,29.98,SE,136,0.0,3.1,62,0.00,,---,0.00,VWS V14.00,2013-06-13 08:00:00,
2013-06-13 03:10:00,79.3,65.2,29.98,ESE,119,0.0,3.1,62,0.00,,---,0.00,VWS V14.00,2013-06-13 08:10:00,
2013-06-13 03:20:00,79.0,65.3,29.98,ESE,118,0.0,0.0,63,0.00,,---,0.00,VWS V14.00,2013-06-13 08:20:00,
2013-06-13 03:30:00,78.8,65.6,29.98,ESE,118,0.0,0.0,64,0.00,,---,0.00,VWS V14.00,2013-06-13 08:30:00,
2013-06-13 03:40:00,78.4,65.3,29.98,ESE,118,0.0,0.0,64,0.00,,---,0.00,VWS V14.00,2013-06-13 08:40:00,
2013-06-13 03:50:00,78.3,65.5,29.98,ESE,117,0.0,0.0,65,0.00,,---,0.00,VWS V14.00,2013-06-13 08:50:00,
2013-06-13 04:00:00,77.9,65.6,29.98,ESE,119,0.0,0.0,66,0.00,,---,0.00,VWS V14.00,2013-06-13 09:00:00,
2013-06-13 04:10:00,77.7,65.5,29.98,ESE,118,0.0,0.0,66,0.00,,---,0.00,VWS V14.00,2013-06-13 09:10:00,
2013-06-13 04:20:00,77.4,65.6,29.98,ESE,120,0.0,0.0,67,0.00,,---,0.00,VWS V14.00,2013-06-13 09:20:00,
2013-06-13 04:30:00,77.2,65.8,29.98,ESE,120,0.0,0.0,68,0.00,,---,0.00,VWS V14.00,2013-06-13 09:30:00,
2013-06-13 04:40:00,77.0,65.6,29.98,ESE,117,0.0,0.0,68,0.00,,---,0.00,VWS V14.00,2013-06-13 09:40:00,
2013-06-13 04:50:00,76.6,65.7,29.98,ESE,119,0.0,0.0,69,0.00,,---,0.00,VWS V14.00,2013-06-13 09:50:00,
2013-06-13 05:00:00,76.5,65.5,29.98,ESE,119,0.0,0.0,69,0.00,,---,0.00,VWS V14.00,2013-06-13 10:00:00,
2013-06-13 05:10:00,76.3,65.8,29.98,ESE,117,0.0,0.0,70,0.00,,---,0.00,VWS V14.00,2013-06-13 10:10:00,
2013-06-13 05:20:00,76.1,65.6,29.98,ESE,117,0.0,0.0,70,0.00,,---,0.00,VWS V14.00,2013-06-13 10:20:00,
2013-06-13 05:30:00,75.9,65.8,29.98,ESE,119,0.0,0.0,71,0.00,,---,0.00,VWS V14.00,2013-06-13 10:30:00,
2013-06-13 05:40:00,75.7,66.1,29.98,ESE,119,0.0,0.0,72,0.00,,---,0.00,VWS V14.00,2013-06-13 10:40:00,
2013-06-13 05:50:00,75.6,65.9,29.98,ESE,120,0.0,0.0,72,0.00,,---,0.00,VWS V14.00,2013-06-13 10:50:00,
2013-06-13 06:00:00,75.4,66.1,29.98,ESE,117,0.0,0.0,73,0.00,,---,0.00,VWS V14.00,2013-06-13 11:00:00,
2013-06-13 06:10:00,75.2,66.3,29.98,ESE,118,0.0,3.1,74,0.00,,---,0.00,VWS V14.00,2013-06-13 11:10:00,
2013-06-13 06:20:00,75.2,66.3,30.01,ESE,121,0.0,0.0,74,0.00,,---,0.00,VWS V14.00,2013-06-13 11:20:00,
2013-06-13 06:30:00,75.0,66.6,30.01,ESE,117,0.0,0.0,75,0.00,,---,0.00,VWS V14.00,2013-06-13 11:30:00,
2013-06-13 06:40:00,74.8,66.4,30.01,ESE,121,0.0,2.7,75,0.00,,---,0.00,VWS V14.00,2013-06-13 11:40:00,
2013-06-13 06:50:00,74.8,66.8,30.01,ESE,119,0.0,0.0,76,0.00,,---,0.00,VWS V14.00,2013-06-13 11:50:00,
2013-06-13 07:00:00,74.8,67.2,30.01,ESE,118,0.0,3.1,77,0.00,,---,0.00,VWS V14.00,2013-06-13 12:00:00,
2013-06-13 07:10:00,75.0,67.3,30.01,ESE,120,0.0,0.0,77,0.00,,---,0.00,VWS V14.00,2013-06-13 12:10:00,
2013-06-13 07:20:00,75.4,68.1,30.01,ESE,115,0.0,0.0,78,0.00,,---,0.00,VWS V14.00,2013-06-13 12:20:00,
2013-06-13 07:30:00,75.7,68.4,30.01,ESE,120,0.0,0.0,78,0.00,,---,0.00,VWS V14.00,2013-06-13 12:30:00,
2013-06-13 07:40:00,76.3,68.9,30.04,ESE,120,0.0,0.0,78,0.00,,---,0.00,VWS V14.00,2013-06-13 12:40:00,
2013-06-13 07:50:00,76.8,69.4,30.01,ESE,119,0.0,0.0,78,0.00,,---,0.00,VWS V14.00,2013-06-13 12:50:00,
2013-06-13 08:00:00,77.4,70.0,30.01,ESE,119,0.0,3.1,78,0.00,,---,0.00,VWS V14.00,2013-06-13 13:00:00,
2013-06-13 08:10:00,78.1,70.3,30.04,ESE,116,0.0,0.0,77,0.00,,---,0.00,VWS V14.00,2013-06-13 13:10:00,
2013-06-13 08:20:00,78.8,71.0,30.04,ESE,119,0.0,4.0,77,0.00,,---,0.00,VWS V14.00,2013-06-13 13:20:00,
2013-06-13 08:30:00,79.5,71.3,30.04,ESE,115,0.0,4.0,76,0.00,,---,0.00,VWS V14.00,2013-06-13 13:30:00,
2013-06-13 08:40:00,80.1,71.4,30.04,SSE,168,0.0,3.6,75,0.00,,---,0.00,VWS V14.00,2013-06-13 13:40:00,
2013-06-13 08:50:00,81.0,72.3,30.04,WSW,257,0.0,5.4,75,0.00,,---,0.00,VWS V14.00,2013-06-13 13:50:00,
2013-06-13 09:00:00,81.7,72.2,30.04,SSW,210,3.1,4.5,73,0.00,,---,0.00,VWS V14.00,2013-06-13 14:00:00,
2013-06-13 09:10:00,82.4,72.1,30.04,SW,224,3.1,4.9,71,0.00,,---,0.00,VWS V14.00,2013-06-13 14:10:00,
2013-06-13 09:20:00,82.9,72.2,30.04,SW,227,0.0,4.5,70,0.00,,---,0.00,VWS V14.00,2013-06-13 14:20:00,
2013-06-13 09:30:00,83.3,71.6,30.04,SW,224,4.0,4.5,68,0.00,,---,0.00,VWS V14.00,2013-06-13 14:30:00,
2013-06-13 09:40:00,83.8,71.7,30.04,SW,219,0.0,4.5,67,0.00,,---,0.00,VWS V14.00,2013-06-13 14:40:00,
2013-06-13 09:50:00,84.4,71.8,30.04,SSW,204,0.0,4.9,66,0.00,,---,0.00,VWS V14.00,2013-06-13 14:50:00,
2013-06-13 10:00:00,84.9,71.8,30.04,SW,219,0.0,4.0,65,0.00,,---,0.00,VWS V14.00,2013-06-13 15:00:00,
2013-06-13 10:10:00,85.6,72.1,30.04,South,172,0.0,5.4,64,0.00,,---,0.00,VWS V14.00,2013-06-13 15:10:00,
2013-06-13 10:20:00,86.2,71.6,30.04,SW,227,2.7,4.0,62,0.00,,---,0.00,VWS V14.00,2013-06-13 15:20:00,
2013-06-13 10:30:00,86.7,71.2,30.04,SW,236,0.0,4.0,60,0.00,,---,0.00,VWS V14.00,2013-06-13 15:30:00,
2013-06-13 10:40:00,87.3,71.2,30.04,SSE,157,0.0,4.9,59,0.00,,---,0.00,VWS V14.00,2013-06-13 15:40:00,
2013-06-13 10:50:00,87.8,71.2,30.04,SSE,161,0.0,4.5,58,0.00,,---,0.00,VWS V14.00,2013-06-13 15:50:00,
2013-06-13 11:00:00,88.3,71.2,30.04,SW,228,3.1,4.0,57,0.00,,---,0.00,VWS V14.00,2013-06-13 16:00:00,
2013-06-13 11:10:00,88.7,70.5,30.04,SSE,155,2.7,4.5,55,0.00,,---,0.00,VWS V14.00,2013-06-13 16:10:00,
2013-06-13 11:20:00,88.9,69.6,30.04,South,177,3.1,4.5,53,0.00,,---,0.00,VWS V14.00,2013-06-13 16:20:00,
2013-06-13 11:30:00,89.8,69.8,30.04,SE,139,0.0,3.6,52,0.00,,---,0.00,VWS V14.00,2013-06-13 16:30:00,
2013-06-13 11:40:00,90.3,69.8,30.04,ESE,118,0.0,4.9,51,0.00,,---,0.00,VWS V14.00,2013-06-13 16:40:00,
2013-06-13 11:50:00,90.9,69.1,30.04,ESE,114,0.0,4.9,49,0.00,,---,0.00,VWS V14.00,2013-06-13 16:50:00,
2013-06-13 12:00:00,91.4,69.0,30.04,SE,138,0.0,5.8,48,0.00,,---,0.00,VWS V14.00,2013-06-13 17:00:00,
2013-06-13 12:10:00,91.8,68.7,30.01,SSE,150,2.7,4.5,47,0.00,,---,0.00,VWS V14.00,2013-06-13 17:10:00,
2013-06-13 12:20:00,91.8,68.1,30.01,WSW,255,0.0,4.5,46,0.00,,---,0.00,VWS V14.00,2013-06-13 17:20:00,
2013-06-13 12:30:00,92.3,67.9,30.01,SSE,152,0.0,4.0,45,0.00,,---,0.00,VWS V14.00,2013-06-13 17:30:00,
2013-06-13 12:40:00,92.7,67.6,30.01,SW,215,0.0,4.5,44,0.00,,---,0.00,VWS V14.00,2013-06-13 17:40:00,
2013-06-13 12:50:00,93.4,68.2,30.01,West,281,0.0,4.5,44,0.00,,---,0.00,VWS V14.00,2013-06-13 17:50:00,
2013-06-13 13:00:00,93.4,67.6,30.01,South,171,0.0,4.0,43,0.00,,---,0.00,VWS V14.00,2013-06-13 18:00:00,
2013-06-13 13:10:00,93.9,68.0,30.01,SSW,204,2.7,4.0,43,0.00,,---,0.00,VWS V14.00,2013-06-13 18:10:00,
2013-06-13 13:20:00,94.5,67.8,30.01,SSE,157,0.0,3.6,42,0.00,,---,0.00,VWS V14.00,2013-06-13 18:20:00,
2013-06-13 13:30:00,94.3,66.3,30.01,NW,326,2.7,4.9,40,0.00,,---,0.00,VWS V14.00,2013-06-13 18:30:00,
2013-06-13 13:40:00,94.8,66.8,29.98,SW,230,0.0,4.0,40,0.00,,---,0.00,VWS V14.00,2013-06-13 18:40:00,
2013-06-13 13:50:00,94.6,65.9,29.98,SE,124,0.0,4.9,39,0.00,,---,0.00,VWS V14.00,2013-06-13 18:50:00,
2013-06-13 14:00:00,95.2,65.6,29.98,SSE,147,5.8,6.7,38,0.00,,---,0.00,VWS V14.00,2013-06-13 19:00:00,
2013-06-13 14:10:00,95.4,65.0,29.98,SW,219,0.0,5.8,37,0.00,,---,0.00,VWS V14.00,2013-06-13 19:10:00,
2013-06-13 14:20:00,95.7,65.3,29.98,SSE,157,0.0,3.6,37,0.00,,---,0.00,VWS V14.00,2013-06-13 19:20:00,
2013-06-13 14:30:00,96.1,64.8,29.98,SSE,156,0.0,4.5,36,0.00,,---,0.00,VWS V14.00,2013-06-13 19:30:00,
2013-06-13 14:40:00,96.6,65.3,29.98,SW,220,2.7,4.0,36,0.00,,---,0.00,VWS V14.00,2013-06-13 19:40:00,
2013-06-13 14:50:00,96.4,64.3,29.95,SSE,151,0.0,4.0,35,0.00,,---,0.00,VWS V14.00,2013-06-13 19:50:00,
2013-06-13 15:00:00,96.8,64.7,29.95,ESE,104,0.0,4.9,35,0.00,,---,0.00,VWS V14.00,2013-06-13 20:00:00,
2013-06-13 15:10:00,96.4,63.5,29.95,WSW,242,0.0,4.5,34,0.00,,---,0.00,VWS V14.00,2013-06-13 20:10:00,
2013-06-13 15:20:00,96.3,63.4,29.95,East,96,0.0,4.0,34,0.00,,---,0.00,VWS V14.00,2013-06-13 20:20:00,
2013-06-13 15:30:00,96.8,63.8,29.95,South,174,0.0,4.0,34,0.00,,---,0.00,VWS V14.00,2013-06-13 20:30:00,
2013-06-13 15:40:00,97.5,65.3,29.92,SSE,160,2.7,2.7,35,0.00,,---,0.00,VWS V14.00,2013-06-13 20:40:00,
2013-06-13 15:50:00,97.9,64.8,29.92,SSE,153,0.0,4.5,34,0.00,,---,0.00,VWS V14.00,2013-06-13 20:50:00,
2013-06-13 16:00:00,97.7,64.6,29.92,NE,37,2.7,4.9,34,0.00,,---,0.00,VWS V14.00,2013-06-13 21:00:00,
2013-06-13 16:10:00,97.3,64.3,29.92,NE,37,0.0,2.7,34,0.00,,---,0.00,VWS V14.00,2013-06-13 21:10:00,
2013-06-13 16:20:00,97.5,64.4,29.92,South,187,2.7,4.0,34,0.00,,---,0.00,VWS V14.00,2013-06-13 21:20:00,
2013-06-13 16:30:00,97.2,64.1,29.92,SSE,157,0.0,3.1,34,0.00,,---,0.00,VWS V14.00,2013-06-13 21:30:00,
2013-06-13 16:40:00,97.0,64.8,29.89,SW,232,3.1,4.9,35,0.00,,---,0.00,VWS V14.00,2013-06-13 21:40:00,
2013-06-13 16:50:00,97.2,65.0,29.89,SSE,160,0.0,3.6,35,0.00,,---,0.00,VWS V14.00,2013-06-13 21:50:00,
2013-06-13 17:00:00,97.7,65.4,29.89,SE,131,0.0,4.0,35,0.00,,---,0.00,VWS V14.00,2013-06-13 22:00:00,
2013-06-13 17:10:00,97.2,64.1,29.89,SW,228,0.0,4.9,34,0.00,,---,0.00,VWS V14.00,2013-06-13 22:10:00,
2013-06-13 17:20:00,96.6,63.7,29.89,West,260,3.6,4.9,34,0.00,,---,0.00,VWS V14.00,2013-06-13 22:20:00,
2013-06-13 17:30:00,96.4,63.5,29.89,SSE,149,0.0,3.6,34,0.00,,---,0.00,VWS V14.00,2013-06-13 22:30:00,
2013-06-13 17:40:00,96.1,63.2,29.89,South,170,0.0,4.9,34,0.00,,---,0.00,VWS V14.00,2013-06-13 22:40:00,
2013-06-13 17:50:00,95.7,62.9,29.89,SE,124,0.0,4.0,34,0.00,,---,0.00,VWS V14.00,2013-06-13 22:50:00,
2013-06-13 18:00:00,95.5,62.7,29.89,SE,136,2.7,5.8,34,0.00,,---,0.00,VWS V14.00,2013-06-13 23:00:00,
2013-06-13 18:10:00,95.4,61.7,29.89,SE,141,0.0,4.9,33,0.00,,---,0.00,VWS V14.00,2013-06-13 23:10:00,
2013-06-13 18:20:00,95.0,60.5,29.89,SE,144,0.0,3.6,32,0.00,,---,0.00,VWS V14.00,2013-06-13 23:20:00,
2013-06-13 18:30:00,94.8,60.4,29.89,SSE,158,2.7,5.4,32,0.00,,---,0.00,VWS V14.00,2013-06-13 23:30:00,
2013-06-13 18:40:00,94.6,61.1,29.89,SSE,160,0.0,3.6,33,0.00,,---,0.00,VWS V14.00,2013-06-13 23:40:00,
2013-06-13 18:50:00,94.3,61.6,29.89,South,173,0.0,4.0,34,0.00,,---,0.00,VWS V14.00,2013-06-13 23:50:00,
2013-06-13 19:00:00,94.1,63.1,29.89,SE,146,0.0,4.5,36,0.00,,---,0.00,VWS V14.00,2013-06-14 00:00:00,
2013-06-13 19:10:00,93.7,63.6,29.89,SSW,196,4.0,4.5,37,0.00,,---,0.00,VWS V14.00,2013-06-14 00:10:00,
2013-06-13 19:20:00,93.4,63.2,29.89,SSE,159,0.0,4.5,37,0.00,,---,0.00,VWS V14.00,2013-06-14 00:20:00,
2013-06-13 19:30:00,93.0,63.7,29.89,SSE,161,0.0,0.0,38,0.00,,---,0.00,VWS V14.00,2013-06-14 00:30:00,
2013-06-13 19:40:00,92.7,63.4,29.86,SSE,161,0.0,4.0,38,0.00,,---,0.00,VWS V14.00,2013-06-14 00:40:00,
2013-06-13 19:50:00,92.3,63.8,29.89,SSE,159,0.0,0.0,39,0.00,,---,0.00,VWS V14.00,2013-06-14 00:50:00,
2013-06-13 20:00:00,92.1,64.3,29.89,SSE,160,0.0,0.0,40,0.00,,---,0.00,VWS V14.00,2013-06-14 01:00:00,
2013-06-13 20:10:00,91.6,63.9,29.89,SE,138,0.0,4.0,40,0.00,,---,0.00,VWS V14.00,2013-06-14 01:10:00,
2013-06-13 20:20:00,91.2,63.5,29.89,SE,144,0.0,3.1,40,0.00,,---,0.00,VWS V14.00,2013-06-14 01:20:00,
2013-06-13 20:30:00,90.7,63.1,29.89,SE,142,0.0,3.1,40,0.00,,---,0.00,VWS V14.00,2013-06-14 01:30:00,
2013-06-13 20:40:00,90.1,63.3,29.89,SE,141,0.0,2.7,41,0.00,,---,0.00,VWS V14.00,2013-06-14 01:40:00,
2013-06-13 20:50:00,89.8,63.0,29.89,SE,144,0.0,3.6,41,0.00,,---,0.00,VWS V14.00,2013-06-14 01:50:00,
2013-06-13 21:00:00,89.8,63.7,29.89,SSE,155,0.0,4.0,42,0.00,,---,0.00,VWS V14.00,2013-06-14 02:00:00,
2013-06-13 21:10:00,89.4,64.0,29.89,SSE,153,0.0,4.5,43,0.00,,---,0.00,VWS V14.00,2013-06-14 02:10:00,
2013-06-13 21:20:00,89.2,63.8,29.89,SSE,150,0.0,3.6,43,0.00,,---,0.00,VWS V14.00,2013-06-14 02:20:00,
2013-06-13 21:30:00,88.9,64.2,29.89,SSE,159,0.0,3.6,44,0.00,,---,0.00,VWS V14.00,2013-06-14 02:30:00,
2013-06-13 21:40:00,88.5,63.8,29.89,SSE,165,0.0,3.6,44,0.00,,---,0.00,VWS V14.00,2013-06-14 02:40:00,
2013-06-13 21:50:00,88.3,64.3,29.89,SSE,158,0.0,3.6,45,0.00,,---,0.00,VWS V14.00,2013-06-14 02:50:00,
2013-06-13 22:00:00,88.0,64.0,29.89,SE,126,0.0,3.6,45,0.00,,---,0.00,VWS V14.00,2013-06-14 03:00:00,
2013-06-13 22:10:00,87.6,64.3,29.92,SE,128,0.0,3.6,46,0.00,,---,0.00,VWS V14.00,2013-06-14 03:10:00,
2013-06-13 22:20:00,87.3,64.0,29.92,SE,135,0.0,4.0,46,0.00,,---,0.00,VWS V14.00,2013-06-14 03:20:00,
2013-06-13 22:30:00,87.1,64.4,29.92,SE,134,0.0,4.0,47,0.00,,---,0.00,VWS V14.00,2013-06-14 03:30:00,
2013-06-13 22:40:00,86.7,64.7,29.92,SE,135,0.0,4.0,48,0.00,,---,0.00,VWS V14.00,2013-06-14 03:40:00,
2013-06-13 22:50:00,86.4,64.4,29.92,SE,134,0.0,0.0,48,0.00,,---,0.00,VWS V14.00,2013-06-14 03:50:00,
2013-06-13 23:00:00,86.0,64.6,29.92,SE,134,0.0,4.0,49,0.00,,---,0.00,VWS V14.00,2013-06-14 04:00:00,
2013-06-13 23:10:00,85.5,64.1,29.92,SE,135,0.0,0.0,49,0.00,,---,0.00,VWS V14.00,2013-06-14 04:10:00,
2013-06-13 23:20:00,85.1,64.4,29.92,SE,137,0.0,0.0,50,0.00,,---,0.00,VWS V14.00,2013-06-14 04:20:00,
2013-06-13 23:30:00,84.7,64.6,29.92,SE,136,0.0,0.0,51,0.00,,---,0.00,VWS V14.00,2013-06-14 04:30:00,
2013-06-13 23:40:00,84.2,64.7,29.92,SE,136,0.0,0.0,52,0.00,,---,0.00,VWS V14.00,2013-06-14 04:40:00,
2013-06-13 23:50:00,84.0,64.5,29.92,SE,136,0.0,0.0,52,0.00,,---,0.00,VWS V14.00,2013-06-14 04:50:00,